Weather History for Kodiak, AK

Change the Weather History Date:

Monday, January 21, 2013

  Actual Average Record
Temperature  
Mean Temperature 37 °F 30 °F  
Max Temperature 40 °F 35 °F 43 °F (1985)
Min Temperature 34 °F 26 °F -4 °F (1968)
Degree Days  
Heating Degree Days 28 35  
Month to date heating degree days 648 723  
Since 1 July heating degree days 4687 4564  
Cooling Degree Days 0    
Month to date cooling degree days 0  
Year to date cooling degree days 0  
Moisture  
Dew Point 38 °F    
Average Humidity 0    
Maximum Humidity 0    
Minimum Humidity 0    
Precipitation  
Precipitation 1.25 in 0.27 in 2.43 in (1963)
Month to date precipitation 5.59 5.80  
Year to date precipitation 5.59 5.80  
Snow  
Snow T in 0.50 in 10.50 in (1956)
Month to date snowfall 3.6 8.4  
Since 1 July snowfall 20.0 29.7  
Snow Depth 0.00 in    
Sea Level Pressure  
Sea Level Pressure 29.54 in    
Wind  
Wind Speed 16 mph (NE)    
Max Wind Speed 30 mph    
Max Gust Speed 38 mph    
Visibility 4 miles    
Events Rain , Snow    
T = Trace of Precipitation, MM = Missing Value Source: NWS Daily Summary

Daily Weather History Graph

Daily Weather History Graph

Search for Another Location

Airport:

Trip Planner

Search our weather history database for the weather conditions in past years. The results will help you decide how hot, cold, wet, or windy it might be!

Date:

Astronomy

Jan. 21, 2013 Rise Set
Actual Time 9:32 AM AKST 5:11 PM AKST
Civil Twilight 8:45 AM AKST 5:57 PM AKST
Nautical Twilight 7:57 AM AKST 6:46 PM AKST
Astronomical Twilight 7:10 AM AKST 7:32 PM AKST
Moon 12:51 PM AKST (1/21) 5:14 AM AKST (1/21)
Length of Visible Light 9h 11m
Length of Day
7h 39m
Waxing Gibbous, 76% of the Moon is Illuminated
Jan 21
Waxing Gibbous
Jan 26
Full
Feb 3
Last Quarter
Feb 9
New
Feb 17
First Quarter

Hourly Weather History & Observations

Time (AKST) Temp. Windchill Dew Point Humidity Pressure Visibility Wind Dir Wind Speed Gust Speed Precip Events Conditions
12:53 AM 34.0 °F - 33.1 °F 96% 29.76 in 9.0 mi Calm Calm - N/A   Overcast
1:53 AM 37.0 °F 32.4 °F 32.0 °F 82% 29.75 in 10.0 mi East 5.8 mph - N/A   Overcast
3:53 AM 36.0 °F 31.1 °F 35.1 °F 97% 29.72 in 10.0 mi NNE 5.8 mph - 0.00 in   Overcast
4:30 AM 35.6 °F 29.2 °F 35.6 °F 100% 29.70 in 4.0 mi NNE 8.1 mph - 0.00 in Rain Light Rain
4:53 AM 36.0 °F 28.0 °F 35.1 °F 97% 29.69 in 6.0 mi NE 11.5 mph - 0.00 in   Overcast
4:56 AM 35.6 °F 27.5 °F 35.6 °F 100% 29.69 in 5.0 mi NE 11.5 mph - 0.00 in Rain Light Rain
5:30 AM 35.6 °F 26.6 °F 35.6 °F 100% 29.70 in 5.0 mi NE 13.8 mph - 0.01 in Rain Light Rain
5:53 AM 36.0 °F 26.3 °F 35.1 °F 97% 29.69 in 8.0 mi NE 16.1 mph - 0.01 in Rain Light Rain
6:05 AM 35.6 °F 27.1 °F 35.6 °F 100% 29.68 in 4.0 mi NE 12.7 mph - 0.00 in Rain Light Rain
6:13 AM 35.6 °F 27.5 °F 35.6 °F 100% 29.68 in 5.0 mi NE 11.5 mph - 0.00 in Snow Light Snow
6:53 AM 36.0 °F 26.7 °F 35.1 °F 97% 29.68 in 7.0 mi NE 15.0 mph - 0.00 in Rain , Snow Light Rain
7:33 AM 37.4 °F 29.8 °F 35.6 °F 93% 29.65 in 10.0 mi NE 11.5 mph - 0.00 in   Overcast
7:53 AM 37.9 °F 28.5 °F 35.1 °F 89% 29.63 in 10.0 mi NNE 17.3 mph - 0.00 in Rain Light Rain
8:53 AM 37.9 °F 27.3 °F 36.0 °F 93% 29.62 in 10.0 mi NNE 21.9 mph 27.6 mph 0.00 in Rain Light Rain
9:53 AM 39.0 °F 29.3 °F 37.0 °F 93% 29.61 in 3.0 mi NNE 19.6 mph 27.6 mph 0.02 in Rain Rain
10:53 AM 39.0 °F 29.0 °F 37.0 °F 93% 29.59 in 4.0 mi NNE 20.7 mph 29.9 mph 0.09 in Rain Rain
11:34 AM 39.2 °F 28.5 °F 37.4 °F 93% 29.57 in 3.0 mi NNE 24.2 mph 34.5 mph 0.07 in Rain Rain
11:53 AM 39.9 °F 29.2 °F 37.9 °F 93% 29.57 in 4.0 mi NNE 25.3 mph 32.2 mph 0.10 in Rain Light Rain
12:53 PM 39.9 °F 30.0 °F 39.0 °F 97% 29.55 in 3.0 mi NE 21.9 mph 31.1 mph 0.08 in Rain Light Rain
1:21 PM 39.2 °F 28.5 °F 39.2 °F 100% 29.53 in 2.0 mi NNE 24.2 mph - 0.01 in Rain Light Rain
1:53 PM 39.9 °F 30.8 °F 39.0 °F 97% 29.52 in 2.0 mi NNE 18.4 mph 27.6 mph 0.02 in Rain Light Rain
2:53 PM 39.9 °F 30.0 °F 39.0 °F 97% 29.47 in 2.0 mi NE 21.9 mph 27.6 mph 0.09 in Rain Light Rain
3:23 PM 39.2 °F 27.4 °F 39.2 °F 100% 29.44 in 3.0 mi NNE 29.9 mph 38.0 mph 0.06 in Rain Light Rain
3:53 PM 39.9 °F 29.5 °F 39.9 °F 100% 29.43 in 3.0 mi NE 24.2 mph - 0.12 in Rain Light Rain
4:53 PM 39.9 °F 31.4 °F 39.9 °F 100% 29.42 in 3.0 mi NE 16.1 mph - 0.10 in Rain Light Rain
4:56 PM 39.2 °F 29.8 °F 39.2 °F 100% 29.41 in 2.0 mi NE 18.4 mph - 0.00 in Rain Light Rain
5:53 PM 39.9 °F 31.1 °F 39.9 °F 100% 29.40 in 2.0 mi NE 17.3 mph - 0.09 in Rain Light Rain
6:32 PM 39.2 °F 30.5 °F 39.2 °F 100% 29.39 in 1.0 mi NE 16.1 mph - 0.05 in Rain Light Rain
6:36 PM 39.2 °F 30.2 °F 39.2 °F 100% 29.38 in 2.0 mi NE 17.3 mph - 0.06 in Rain Light Rain
6:53 PM 39.9 °F 30.8 °F 39.9 °F 100% 29.39 in 2.0 mi NE 18.4 mph - 0.07 in Rain Light Rain
7:53 PM 39.9 °F 32.5 °F 39.9 °F 100% 29.39 in 2.0 mi NE 12.7 mph - 0.07 in Rain Light Rain
8:01 PM 39.2 °F 31.2 °F 39.2 °F 100% 29.39 in 2.0 mi NE 13.8 mph - 0.02 in Rain Light Rain
8:53 PM 39.9 °F 31.4 °F 39.9 °F 100% 29.39 in 2.0 mi NE 16.1 mph - 0.09 in Rain Light Rain
9:06 PM 39.2 °F 30.5 °F 39.2 °F 100% 29.39 in 2.0 mi NE 16.1 mph - 0.02 in Rain Light Rain
9:53 PM 39.9 °F 30.8 °F 39.9 °F 100% 29.40 in 2.0 mi NE 18.4 mph - 0.10 in Rain Rain
10:53 PM 39.9 °F 30.8 °F 39.9 °F 100% 29.40 in 4.0 mi NE 18.4 mph - 0.10 in Rain Rain
11:53 PM 39.9 °F 30.8 °F 39.9 °F 100% 29.39 in 4.0 mi NE 18.4 mph - 0.10 in Rain Rain